This is the latest recevied weather packets stored in our database for station/object K6CED. If no packets are shown the sender has not sent any weather packets the latest 10 day(s).
| Time | Temp. | Humidity | Pressure | Rain* | Wind** | Luminosity | Snow |
|---|---|---|---|---|---|---|---|
| 1787528705 | 38.33° C | 28% | 1013.7 hPa | 0 mm | - | 367 W/m² | - |
| 1787528404 | 38.89° C | 29% | 1013.7 hPa | 0 mm | - | 382 W/m² | - |
| 1787528101 | 38.33° C | 29% | 1013.8 hPa | 0 mm | - | 396 W/m² | - |
| 1787527796 | 38.33° C | 29% | 1013.7 hPa | 0 mm | - | 414 W/m² | - |
| 1787527492 | 38.89° C | 28% | 1013.8 hPa | 0 mm | - | 438 W/m² | - |
| 1787527187 | 38.89° C | 28% | 1013.9 hPa | 0 mm | - | 458 W/m² | - |
| 1787526883 | 38.89° C | 28% | 1013.8 hPa | 0 mm | - | 478 W/m² | - |
| 1787526578 | 38.33° C | 29% | 1013.8 hPa | 0 mm | - | 497 W/m² | - |
| 1787526275 | 38.89° C | 27% | 1013.8 hPa | 0 mm | - | 517 W/m² | - |
| 1787525971 | 39.44° C | 27% | 1013.8 hPa | 0 mm | - | 537 W/m² | - |
| 1787525666 | 39.44° C | 27% | 1013.7 hPa | 0 mm | - | 552 W/m² | - |
| 1787525360 | 39.44° C | 27% | 1013.6 hPa | 0 mm | - | 571 W/m² | - |
| 1787525057 | 39.44° C | 26% | 1013.8 hPa | 0 mm | - | 587 W/m² | - |
| 1787524756 | 40° C | 25% | 1013.9 hPa | 0 mm | - | 612 W/m² | - |
| 1787524453 | 40° C | 26% | 1013.9 hPa | 0 mm | - | 628 W/m² | - |
| 1787524147 | 39.44° C | 25% | 1013.9 hPa | 0 mm | - | 634 W/m² | - |
| 1787523843 | 40° C | 26% | 1013.8 hPa | 0 mm | - | 637 W/m² | - |
| 1787523537 | 40° C | 25% | 1013.9 hPa | 0 mm | - | 651 W/m² | - |
| 1787523232 | 40.56° C | 25% | 1013.9 hPa | 0 mm | - | 675 W/m² | - |
| 1787522928 | 40° C | 26% | 1013.9 hPa | 0 mm | - | 694 W/m² | - |
| 1787522624 | 40° C | 25% | 1014.1 hPa | 0 mm | - | 704 W/m² | - |
| 1787522319 | 40° C | 25% | 1014.3 hPa | 0 mm | - | 753 W/m² | - |
| 1787522015 | 40° C | 26% | 1014.2 hPa | 0 mm | - | 784 W/m² | - |
| 1787521712 | 40° C | 25% | 1014.2 hPa | 0 mm | - | 692 W/m² | - |
| 1787521401 | 40° C | 26% | 1014.2 hPa | 0 mm | - | 751 W/m² | - |
* Rain latest hour (hover to see other rain measurements)
** Current wind speed in m/s (hover to see current wind gust speed)